Regional Weather Roundup
Issued by NWS

Home | Current Version | Previous Version | Graphics & Text | Print | Product List | Glossary On
Versions: 1 2 3 4 5 6 7 8 9 10 11 12 13 14 15 16 17 18 19 20 21 22 23 24 25 26 27 28 29 30 31 32 33 34 35 36 37 38 39 40 41 42 43 44 45 46 47 48 49 50
000
ASUS43 KMPX 180001
RWRMN
WEATHER ROUNDUP FOR MINNESOTA
NATIONAL WEATHER SERVICE TWIN CITIES/CHANHASSEN MN
600 PM CST WED JAN 17 2018


NOTE: "FAIR" INDICATES FEW OR NO CLOUDS BELOW 12,000 FEET WITH NO
SIGNIFICANT WEATHER AND/OR OBSTRUCTIONS TO VISIBILITY. N/A MEANS
CURRENT SKY AND/OR WEATHER CONDITIONS ARE NOT AVAILABLE.

MNZ060>063-068>070-180100-
   Twin Cities Metro

CITY           SKY/WX    TMP DP  RH WIND       PRES   REMARKS
TWIN CITIES    FAIR      26  15  63 SW9       30.09S WCI  17
6HR MIN TEMP:  17; 6HR MAX TEMP:  27;

ST PAUL        FAIR      26  13  57 S7        30.11S WCI  18
CRYSTAL        FAIR      26  13  57 SW8       30.07S WCI  18
BLAINE         CLEAR     28  16  59 SW9       30.06F WCI  20
LAKEVILLE      FAIR      23  16  74 SW7       30.09F WCI  15
EDEN PRAIRIE   FAIR      25  15  66 SW10      30.07F WCI  15
6HR MIN TEMP:  19; 6HR MAX TEMP:  28;

SOUTH ST PAUL  FAIR      26  14  61 SW6       30.10S WCI  19
LAKE ELMO      FAIR      23  14  68 S7        30.09R WCI  15
$$
MNZ001>005-007-008-013>017-022>024-027-028-180100-
   Northwest Minnesota

CITY           SKY/WX    TMP DP  RH WIND       PRES   REMARKS
BEMIDJI        FAIR      27  17  66 W16G22    29.89S WCI  15
HALLOCK        FAIR      19  16  86 S12       29.83F WCI   7
ROSEAU         FAIR      25  19  80 SW15      29.80F WCI  12
WARROAD        FAIR      23  18  80 SW10      29.79F WCI  12
CROOKSTON      FAIR      23  19  86 SW13      29.92F WCI  11
FOSSTON        FAIR      18  12  79 S13       29.93S WCI   4
DETROIT LAKES  FAIR      28  19  69 SW6       29.98F WCI  22
MOORHEAD       FAIR      30  21  69 SW13      30.00F WCI  20
PARK RAPIDS    FAIR      20  12  71 SW8       29.93F WCI  10
MAHNOMEN       FAIR      20  15  82 SW13      29.95S WCI   7
$$
MNZ006-009>011-018-025>026-180100-
   North Central Minnesota

CITY           SKY/WX    TMP DP  RH WIND       PRES   REMARKS
BAUDETTE       FAIR      22  14  71 SW10      29.79F WCI  11
FLAG ISLAND    FAIR      14   9  79 S7        29.77F WCI   4
INTL FALLS     FAIR      22  11  62 W8        29.81R WCI  12
6HR MIN TEMP:  22; 6HR MAX TEMP:  26;

WASKISH        FAIR      21  16  79 SW15G21   29.86S WCI   8
BIG FORK       FAIR      28  16  59 SW10      29.85R WCI  19
LONGVILLE      FAIR      25  14  63 SW7       29.92S WCI  17
GRAND RAPIDS   FAIR      26  14  60 VRB6      29.89F WCI  19
CRANE LAKE     FAIR      25  16  68 CALM      29.83R
ORR            FAIR      25  10  54 CALM      29.79S
COOK           FAIR      25  14  63 SW6       29.82S WCI  18
WALKER         FAIR      27  15  61 W14       29.90S WCI  15
$$
MNZ012-019>021-037-180100-
   Northeast Minnesota

CITY           SKY/WX    TMP DP  RH WIND       PRES   REMARKS
DULUTH         FAIR      26   6  42 W22G30    29.85F WCI  12
6HR MIN TEMP:  -3; 6HR MAX TEMP:  27;

ELY            FAIR      25  14  63 SW7       29.79S WCI  17
HIBBING        FAIR      24  12  60 SW3       29.84S
EVELETH        FAIR      24   9  52 SW9       29.84S WCI  14
DULUTH HARBOR  FAIR      25  12  58 SW18G26   29.90F WCI  11
TWO HARBORS    FAIR      28  12  50 SW9G17    29.83S WCI  20
SILVER BAY     FAIR      28  10  47 SW6       29.80S WCI  22
GRAND MARAIS     N/A     31  19  61 VRB7      29.80R WCI  24
G MARAIS ARPRT FAIR      21  10  63 W6        29.74S WCI  14
$$
MNZ029>031-032-039>041-046>048-054>057-064-180100-
   West Central Minnesota

CITY           SKY/WX    TMP DP  RH WIND       PRES   REMARKS
FERGUS FALLS   FAIR      25  18  74 W6        30.03F WCI  18
WHEATON        CLEAR     30  19  64 W13       30.08S WCI  20
MORRIS         CLEAR     27  19  74 W9        30.06S WCI  17
ALEXANDRIA     FAIR      28  20  71 W10       30.02F WCI  19
ELBOW LAKE     FAIR      26  20  78 SW7       30.04F HAZE    WCI  19
WADENA         FAIR      25  18  74 W14G21    29.97F WCI  13
GLENWOOD       FAIR      28  21  74 W13       30.04S WCI  18
APPLETON       CLEAR     27  19  74 W9        30.09S WCI  17
BENSON         CLEAR     28  19  69 NW10      30.09S WCI  19
ORTONVILLE     CLEAR     30  19  64 W9        30.09S WCI  22
MADISON        CLEAR     30  19  64 W12       30.10S WCI  21
WILLMAR        FAIR      28  19  69 W12       30.10R WCI  18
$$
MNZ033>034-036-042>043-049>051-058-059-180100-
   Central Minnesota

CITY           SKY/WX    TMP DP  RH WIND       PRES   REMARKS
ST CLOUD       FAIR      24  15  68 SW8       30.04R WCI  15
6HR MIN TEMP:  17; 6HR MAX TEMP:  27;

SAUK CENTRE      N/A     27  17  68 SW8       30.03S WCI  18
PAYNESVILLE    FAIR      28  19  71 SW14      30.05F WCI  16
AITKIN         FAIR      25  10  54 SW8       29.92F WCI  16
PINE RIVER     FAIR      25  14  63 W6        29.97F WCI  18
BRAINERD       FAIR      27  14  58 SW13      29.96S WCI  16
STAPLES        FAIR      25  16  68 W9        29.98F WCI  15
LONG PRAIRIE   FAIR      28  18  64 S7        30.01F WCI  21
LITTLE FALLS   FAIR      23   9  54 S3        30.01F
LITCHFIELD     FAIR      28  19  69 SW6       30.07R WCI  22
BUFFALO        FAIR      26  16  66 SW8       30.08R WCI  17
MAPLE LAKE     FAIR      26  18  71 MISG      30.06S
HUTCHINSON     FAIR      26  18  69 SW9       30.10R WCI  17
$$
MNZ037-044-045-052-053-180100-
   East Central Minnesota

CITY           SKY/WX    TMP DP  RH WIND       PRES   REMARKS
PRINCETON      FAIR      25  16  68 S8        30.03S WCI  16
MORA           FAIR      25  14  63 SW8       30.02S WCI  16
CAMBRIDGE      FAIR      27  14  59 SW7       30.03F WCI  19
RUSH CITY      FAIR      24  13  62 SW8       30.03S WCI  15
MOOSE LAKE     FAIR      23  10  58 SW7       29.93S WCI  15
HINCKLEY       FAIR      23  12  63 SW12      29.99F WCI  12
CLOQUET        FAIR      27   9  46 SW14      29.88F WCI  15
MCGREGOR       FAIR      23  12  63 SW6       29.93S WCI  16
$$
MNZ071>073-080-081-089-090-097-098-180100-
   Southwest Minnesota

CITY           SKY/WX    TMP DP  RH WIND       PRES   REMARKS
MONTEVIDEO     CLEAR     28  18  64 W8        30.10S WCI  20
GRANITE FALLS  CLEAR     29  20  68 SW14      30.12R WCI  19
CANBY          CLEAR     31  19  61 NW14      30.12R WCI  20
MARSHALL       CLOUDY    26  17  68 W17G24    30.12R WCI  13
REDWOOD FALLS  CLEAR     25  16  68 SW10      30.11F WCI  15
OLIVIA         CLEAR     27  18  69 SW8       30.09S WCI  18
PIPESTONE      CLOUDY    21  16  79 W10       30.15F WCI  10
WINDOM         CLEAR     27   9  46 SW14G26   30.11F WCI  15
WORTHINGTON    CLEAR     27  18  69 SW23      30.14F WCI  12
JACKSON        PTCLDY    28  18  64 SW15      30.16F WCI  17
SLAYTON        CLOUDY    26  18  73 SW23G32   30.11F WCI  11
$$
MNZ065>067-074>077-082>085-091>093-180100-
   South Central Minnesota

CITY           SKY/WX    TMP DP  RH WIND       PRES   REMARKS
MANKATO        FAIR      25  16  68 SW12      30.14F WCI  14
NEW ULM        CLEAR     25  16  68 SW9       30.13S WCI  15
ST JAMES       CLOUDY    27  18  69 SW10G18   30.15S WCI  17
FAIRMONT       CLOUDY    26  18  71 SW17      30.17S WCI  13
FARIBAULT      FAIR      25  16  68 S9G17     30.12F WCI  15
OWATONNA       FAIR      23  16  74 S20       30.12F WCI   8
WASECA         FAIR      23  16  74 S14       30.14F WCI  11
ALBERT LEA     FAIR      23  14  68 SW10G17   30.17S WCI  12
$$
MNZ078>079-086>088-094>096-180100-
   Southeast Minnesota

CITY           SKY/WX    TMP DP  RH WIND       PRES   REMARKS
ROCHESTER      FAIR      21  13  71 SW22      30.13S WCI   5
6HR MIN TEMP:  16; 6HR MAX TEMP:  21;

RED WING       FAIR      25  10  54 W10       30.11F WCI  15
STANTON        FAIR      24  16  71 SW16      30.10F WCI  11
DODGE CENTER   FAIR      19  12  73 SW20      30.11F WCI   4
WINONA         FAIR      25  12  58 SW5       30.16F WCI  19
AUSTIN         FAIR      19  12  73 SW12      30.18S WCI   7
PRESTON        FAIR      21  11  67 SW20G25   30.16R WCI   5
$$
ABBREVIATIONS USED IN REMARKS
   TC - TEMPERATURES IN CELSIUS
  WCI - WIND CHILL INDEX
   HX - HEAT INDEX
  VSB - VISIBILITY
$$




USA.gov is the U.S. government's official web portal to all federal, state and local government web resources and services.